Location: Unspecified
(0.0000°N, 0.0000°E)
Time: 08:50:09
(UTC+02:00)

Delta 168 - Visible Passes

Search period start: 03 September 2015 00:00
Search period end: 13 September 2015 00:00
Orbit: 395 x 2086 km, 25.3° (Epoch: 01 September)

Date Brightness Start Highest point End Pass type
(mag) Time Alt. Az. Time Alt. Az. Time Alt. Az.
03 Sep 5.8 05:28:34 28° N 05:28:34 28° N 05:35:34 10° NE visible
03 Sep 6.6 07:21:42 10° NW 07:28:01 19° N 07:35:28 10° NE visible
04 Sep 6.1 05:21:35 23° N 05:21:35 23° N 05:27:10 10° NE visible
04 Sep 6.6 07:14:53 10° NW 07:20:33 17° N 07:27:10 10° NNE visible
05 Sep 6.3 05:14:35 19° N 05:14:35 19° N 05:18:43 10° NNE visible
05 Sep 6.6 07:08:09 10° NNW 07:13:06 15° N 07:18:53 10° NNE visible
06 Sep 6.5 05:07:34 15° NNE 05:07:34 15° NNE 05:10:10 10° NNE visible
06 Sep 6.6 07:01:26 10° NNW 07:05:40 14° N 07:10:34 10° NNE visible
07 Sep 6.7 05:00:34 11° NNE 05:00:34 11° NNE 05:01:29 10° NNE visible
07 Sep 6.7 06:54:48 10° NNW 06:58:15 13° N 07:02:16 10° NNE visible
08 Sep 6.7 06:48:14 10° N 06:50:51 12° N 06:53:53 10° NNE visible
09 Sep 6.7 06:41:49 10° N 06:43:27 11° N 06:45:24 10° NNE visible
12 Sep 5.6 20:21:08 10° S 20:22:39 11° S 20:24:07 10° SSE visible
